CAPE
3139 3048 2526 2379 1858 2120 2174 2272 1474 1934 1365 1763 1368 1558 1504 1366 873 698 980 596 873 793 798 913 1087 1076 1695 1907 1498 4066 3196 3122 1787 3772 3906 3850 3314 3031 2769 2761 2740 2295 2726 2464 2177 1899 2119 2580 2568 2725 2860 2389 2376 2244 1726 1408 1622 1654 1816 1958 2240 2452 2641 1655 1079 902 1185 1408 1108 1509 1283 1449 1622 1370 1516 2185 2728 2433 1944 1894 1894 2194 2084 1843 1716
3241 2551 2535 2379 2115 1768 1609 1696 1742 2045 1638 1554 1168 1114 1024 946 1386 1461 1305 1450 1136 952 1171 436 422 955 565 2197 1912 2550 3936 3916 3390 3225 3331 3445 3020 2271 2477 2882 2940 2742 2782 2815 2790 2509 2333 2634 2698 2424 2442 2412 2316 1920 1820 1856 1508 1626 1721 1721 1112 924 752 753 932 1010 1066 1270 1380 1371 1658 1704 1527 1446 1944 1300 1683 2384 2772 2500 2392 2328 2092 1919 1770
2603 2616 2317 2012 1967 1749 1604 1604 1860 2603 2454 1888 1584 1453 1208 1026 1493 1029 1152 1166 1198 1143 900 507 1035 1272 1340 2269 2700 2670 3935 4060 3657 3651 3561 3211 2705 2472 2420 2007 2338 2227 2399 2822 2739 2949 2518 2637 2754 2704 2466 1941 2010 2064 1954 1807 1706 1542 1749 1773 1714 1098 1144 939 1094 890 934 985 828 946 1276 1708 1675 1171 1640 1958 1886 1802 1895 2500 2600 2501 2358 2020 1780
1890 1786 1808 2168 2276 1794 1933 1964 2184 2657 2526 2892 2716 2645 1596 1910 1619 1876 2696 2540 1466 1810 1452 1061 4420 4000 3392 2922 3494 3723 3913 3869 3573 3528 3562 3382 3005 2822 2812 2569 1941 1598 2111 2480 2152 1941 2389 2178 1905 1899 2427 2043 1937 1894 2012 1866 1455 1360 1383 1228 1388 1218 1124 1122 928 735 838 852 810 1086 1265 1023 968 1744 1981 1589 2010 2122 2156 2146 2616 2556 2331 2390 2240
1976 2012 2066 2284 2404 2050 2373 2756 2892 3102 2884 2630 2475 2344 3010 3190 3230 3270 3361 3474 3334 3271 1895 2369 3151 3574 3557 3476 3540 3521 3490 3420 3162 3132 3102 3158 2664 2422 2133 1872 1505 1528 1570 1469 1568 1320 1256 1412 1586 1542 1780 1718 1803 1695 1790 1354 1440 1360 1308 1215 1432 1516 1110 1000 932 1080 951 770 837 946 907 957 901 1394 1920 1764 1497 1602 1709 1855 2140 2391 2445 2311 2221
2196 1851 1989 1980 2338 2274 2395 2846 3330 3723 3434 3383 2796 2372 2749 2693 2843 2524 3602 3844 3920 4064 3864 3225 2586 2649 3157 3140 2713 3108 3082 2928 3052 3242 2924 2460 2227 2130 1721 1459 1392 1218 1620 1586 1182 1066 1466 1420 1502 1578 1460 1272 1475 1986 1685 1531 1656 1872 1781 1849 1854 1410 1473 1200 1108 1512 1112 1052 996 884 916 965 828 742 1114 1421 1338 1157 1252 1528 1869 2066 1936 1614 1378
1857 1939 1996 2069 2190 2158 2247 2364 2860 3470 4358 3545 2870 2517 2924 2538 2470 3080 3602 3765 4197 4047 3646 3176 2883 2615 2866 3140 2627 2130 2366 2667 2717 2657 2508 2265 2095 1853 1419 1404 1594 1481 1379 1236 1248 1447 1554 1689 1613 1337 1253 1467 1184 1618 1825 1728 1702 1623 1688 1878 1542 1341 1308 1579 1390 932 766 986 949 972 1228 1350 1088 1010 1270 1406 1342 1224 1226 1158 1066 1370 1602 1763 1465
2129 2127 2278 2395 2488 2453 2338 2631 2942 3594 4249 3142 3015 2993 2813 3238 3752 4026 3746 3884 3974 3839 3571 3460 3014 3386 3258 2325 2294 2475 2154 1765 2122 2380 2233 2234 2142 1959 1807 1431 1208 1136 978 1088 1032 1307 1489 1850 2081 1972 1952 1366 1365 1726 1269 1695 1358 1617 1883 1727 1130 1480 1408 1203 1038 648 519 652 886 1078 1038 1176 1066 1484 1416 1528 1521 1581 1497 968 855 824 844 1126 1238
3390 3262 3186 3114 3004 2956 2790 2925 3542 3779 3484 3017 3016 2748 2532 2885 3312 3048 2894 3490 3956 4102 3840 3406 3186 2934 2592 2508 2418 2316 2070 1806 1697 1424 1953 1928 1842 1922 1544 1451 1430 1334 1169 1267 1398 1674 1878 2017 2116 2200 1722 1453 1327 1346 1122 1303 1338 1395 1382 1547 1408 1430 1404 1195 1234 706 534 1017 1064 749 826 782 691 828 1198 1159 1296 1204 1041 753 633 668 863 897 991
3286 3100 3139 3263 3261 3419 3340 3563 3636 3521 3326 3068 3075 3115 2861 2680 2534 2342 2496 3027 3847 3787 3028 3337 2758 2850 2658 2545 2093 1653 1824 1801 1653 1531 1643 1719 1890 1808 1598 1824 1739 1518 1464 1674 1953 1946 2020 1928 1690 1748 1652 1406 1195 1254 1264 1330 1461 1562 1556 1644 1538 1387 1288 1186 1093 902 767 823 613 544 499 517 718 718 1010 1160 1333 1342 952 833 760 1006 1168 1100 968
3408 3260 3280 3274 3526 3667 3201 3268 3748 3615 3572 3495 3252 3062 3229 2798 2054 2134 2950 2655 2934 3110 2656 2547 2624 2644 2494 2282 2272 1946 1782 2061 1805 1738 1423 1862 1899 1882 1863 2154 2015 1889 1804 1634 1366 1355 1581 1564 1462 1470 1195 1324 1247 1123 1106 1262 1399 1540 1480 1434 1541 1528 1237 1182 1055 912 818 666 764 742 686 692 1042 953 699 948 1449 1166 896 760 800 1081 1206 1150 1106
3546 3435 3599 3800 3207 2876 2584 2885 3390 3270 3490 3502 3490 3442 3118 2943 2421 2249 1978 2365 2246 2120 2448 2398 2422 2473 2112 1988 1674 1397 1573 1574 1571 1435 1259 1064 1398 2061 1756 1467 1724 1530 1733 1838 1794 1431 1560 1472 1380 1612 1330 1369 1410 1221 1215 1111 1129 1383 1726 1672 1704 1754 1403 1271 1165 967 988 953 953 892 925 1080 1050 1085 1176 1270 1357 1224 1159 1099 1184 1358 1284 1225 939
3503 3533 3646 3343 2859 2719 2420 2383 2946 3227 3279 3360 3258 3032 2916 2333 2250 2101 2223 1894 1866 1976 2154 2383 2215 2298 1902 1638 1404 1428 1355 1490 1509 1232 656 662 666 1474 1658 1648 1826 1632 1776 1708 1662 1860 1996 1789 1794 1687 1494 718 417 258 204 295 270 490 1160 1810 1784 1692 1387 903 989 1101 1092 1214 973 1072 1284 893 978 1060 1169 1366 1190 1108 853 597 618 560 536 411 660
3579 3466 3199 3062 3172 2708 2817 2694 2686 3014 3151 3302 3140 3024 2079 2194 1944 1902 1986 1980 1971 2072 2036 2050 1926 1844 1726 1670 1730 1698 1406 1360 988 664 824 833 844 838 1535 1584 1920 1689 1835 1868 1665 1458 1240 772 1138 1260 967 254 0 5 24 47 118 371 1032 1559 1721 1594 1641 1083 1106 1300 1216 1022 1132 922 694 788 1354 1109 926 986 835 568 300 294 370 357 414 547 701
3546 3551 3271 3037 3434 3166 2926 2764 2836 2998 3216 3166 2998 2070 1778 1899 1913 1932 1824 1920 1984 2101 1998 2109 1630 1427 1558 1926 1756 1781 1290 615 816 781 693 814 784 1020 1688 1783 1746 1893 1678 1197 1044 1174 653 419 530 685 926 52 0 0 0 0 66 366 850 1323 1389 1640 2072 1897 1622 1321 1276 434 62 45 49 128 278 276 288 380 361 345 250 366 363 428 684 672 618
3672 3948 3716 3660 3728 3518 3159 3036 3048 3012 3120 2849 2019 1535 1582 1843 1396 1579 1891 1890 1872 1817 2100 1908 1540 1418 1086 1374 1496 1426 666 666 649 657 660 808 835 1926 1869 2045 1378 1255 1279 1098 1369 1242 1026 812 710 675 692 228 0 0 0 0 33 282 659 888 1070 948 1801 2314 1516 484 117 47 106 68 0 0 0 0 22 40 336 904 728 621 783 755 1095 866 468
2889 3754 3630 3761 3776 3759 3370 3117 3148 2686 1869 1746 1930 1970 1990 2016 1908 1716 1646 1629 1547 1684 1977 1914 2260 1734 1292 1380 1430 1046 602 658 603 384 518 616 874 1690 1951 1803 1341 1008 814 926 910 1257 1361 896 384 171 130 28 0 0 0 0 46 217 535 585 598 504 894 979 517 0 0 0 0 0 0 0 0 0 0 0 0 62 32 512 739 159 281 259 348
3092 3660 3566 3476 3660 2664 2581 2565 2118 2209 1876 1785 1738 1632 1908 1869 1803 1712 1793 1630 1682 1533 1639 1852 2095 1643 1396 1413 1400 890 518 286 0 0 38 508 780 1837 1773 1585 918 1288 1427 684 1834 1376 726 434 48 0 0 0 0 0 0 0 18 103 177 198 212 227 116 15 14 72 0 0 0 0 0 0 0 0 0 0 0 0 117 554 237 171 388 200 158
3459 3171 2712 2319 2362 1790 1789 1608 2178 2143 2088 2083 1853 1442 1859 1810 1778 2214 2370 1969 1726 1676 1730 1648 1545 1759 1590 1604 1476 790 106 0 0 0 0 0 632 1744 2228 1403 1176 817 1322 942 1458 886 170 34 5 0 0 0 0 0 0 0 2 41 66 98 186 132 0 0 0 27 15 19 63 232 157 60 84 152 289 268 212 189 236 374 348 221 192 209 168
2418 2312 2306 2235 1810 1326 1520 2074 2262 2053 1993 2006 1743 1602 1568 2030 2266 2004 1973 1952 1727 1910 1569 1537 1721 1530 1508 1610 1202 762 116 0 0 0 0 313 704 1409 1338 1084 1472 1121 902 582 1214 891 276 0 0 0 0 0 0 0 0 0 0 9 3 1 0 0 0 0 10 126 74 16 108 170 435 474 726 664 771 680 498 304 553 882 490 234 290 216 127
1970 2092 2038 1813 1507 1388 1570 2112 1948 2210 2520 2155 1980 2108 2335 2366 2460 2226 1882 1601 1457 1427 1666 1671 1552 1668 1862 1588 1192 562 125 0 0 0 0 0 0 415 701 284 236 1052 1055 1116 743 712 431 20 0 0 0 0 0 0 0 0 0 0 0 0 0 0 0 0 0 142 180 148 222 352 171 204 73 258 605 816 556 624 849 622 219 173 219 282 212
1930 1730 1766 1436 1384 1302 1707 1760 2192 2655 2632 2524 2112 2263 2446 2506 2139 1866 1721 1290 1049 1254 1443 1492 1391 1460 1736 1527 945 580 341 111 0 0 0 0 0 0 135 34 0 659 1989 655 661 648 434 14 0 0 0 0 0 0 0 0 0 0 0 0 0 0 0 0 0 100 172 144 186 163 136 235 85 64 74 58 62 90 120 170 246 366 576 499 528
1737 1774 1822 1242 1502 1687 1706 1690 2286 2589 2496 2474 2416 2186 2346 1973 1654 1416 1418 1394 1421 1122 1126 1147 1253 1252 1424 1416 875 549 292 149 11 0 0 0 0 0 0 0 0 641 1192 650 758 865 405 105 9 0 0 0 0 0 0 0 0 0 0 0 0 0 0 39 62 37 91 147 119 110 173 80 102 109 154 249 170 300 239 353 478 386 426 134 163
1932 1976 1905 1801 1793 1998 1929 1951 2181 2250 2184 2452 2190 1734 1660 1513 1516 1487 1583 1406 1312 1043 783 934 1312 1378 1435 1300 1074 573 228 90 59 60 230 0 0 0 0 0 0 0 892 480 436 502 229 15 4 0 0 0 0 0 0 0 0 0 0 0 0 4 23 3 0 0 0 0 8 12 14 13 29 53 91 258 452 332 350 354 390 307 103 68 198
2684 2388 2104 1973 2083 1988 2084 1878 2008 2015 2313 2216 1768 1462 1438 1429 1380 1168 1225 1292 1046 763 720 1092 1378 1501 1629 1534 1216 754 420 399 463 426 423 0 0 0 0 0 0 0 799 198 108 10 1 0 0 0 0 0 0 0 0 6 0 0 2 0 0 0 0 0 0 0 0 0 0 0 0 0 5 1 2 117 428 868 560 638 490 660 398 298 407
2510 2493 2335 2174 2259 2334 1858 1796 1769 2084 2124 2185 1954 1534 1416 1412 1266 964 847 957 917 881 1391 1479 1698 1737 1622 1371 1352 1116 949 721 655 492 132 79 25 0 0 0 176 946 183 0 0 0 0 0 0 0 0 0 110 114 72 79 2 0 0 1 0 0 0 0 0 0 0 0 0 0 0 0 0 0 2 7 72 470 382 77 58 98 100 150 76
2324 2229 2379 2172 2036 2012 2026 1640 1529 1408 1620 1684 1670 1642 1422 1498 1081 934 770 804 1242 1198 1177 1468 1578 1462 1483 1310 1181 1203 1150 1118 1082 669 332 860 886 357 462 1151 1150 1331 42 3 123 521 515 123 207 5 26 18 25 24 23 14 7 0 0 0 0 0 0 0 0 0 0 0 0 0 0 0 0 2 4 3 1 11 10 6 0 1 10 36 28
1742 1869 2014 1864 1906 1648 1366 1393 1196 1338 1318 1340 993 757 702 860 761 689 820 1210 1521 1400 1265 1424 1529 1492 1300 1098 1120 1024 666 115 0 0 0 0 59 23 0 0 0 0 0 0 0 6 390 220 199 572 329 303 128 185 60 16 0 0 6 0 3 0 0 0 0 0 0 0 0 0 4 2 0 0 0 0 0 0 0 0 6 22 47 25 26
1829 1540 1400 1282 1205 1109 1090 1000 980 1049 868 765 764 646 696 801 816 852 870 941 1005 1143 1393 1386 1112 1046 1064 980 986 577 88 0 0 0 0 0 0 0 0 0 0 0 0 0 0 161 408 623 624 214 7 3 1 0 0 0 0 0 0 0 4 0 0 0 0 0 0 0 0 0 0 0 0 0 0 0 0 0 0 0 14 37 26 31 45
1417 905 605 884 1424 1352 1032 1006 1188 1103 829 640 666 742 767 780 803 763 754 778 728 773 871 859 953 846 772 684 594 442 80 0 0 0 0 0 0 0 0 0 0 0 0 0 0 244 16 19 8 3 2 4 0 0 0 0 0 0 0 0 0 0 0 0 0 0 0 0 0 0 0 0 0 0 0 0 0 0 0 0 0 1 14 13 4
998 806 866 869 1017 1060 1154 1167 996 700 620 638 701 792 928 954 852 801 802 800 760 694 715 677 721 742 559 402 393 302 0 0 0 0 0 0 0 0 0 0 0 0 0 0 6 24 14 0 0 0 0 0 0 0 0 0 0 0 0 0 0 0 0 0 0 0 0 0 0 0 0 0 0 0 0 0 0 0 0 0 0 2 2 2 2
1110 1030 1025 1393 778 968 938 1250 1131 801 743 803 794 840 939 929 894 950 932 897 792 684 551 333 0 0 0 0 47 0 0 0 0 0 0 0 0 0 0 0 0 0 0 0 2 9 0 0 0 0 0 0 0 0 0 0 0 0 0 0 0 0 0 0 0 0 0 0 0 0 0 0 0 0 0 0 0 0 0 0 0 0 0 0 0
1178 1068 1041 1008 862 804 1158 1166 1078 1010 1004 936 839 623 634 650 576 485 456 363 342 172 0 0 0 0 0 0 0 0 0 0 0 0 0 0 0 0 0 0 0 0 0 288 4 0 0 0 0 0 0 0 0 0 0 0 0 0 0 0 0 0 0 2 0 0 0 0 0 0 0 0 0 0 0 0 0 0 0 0 0 0 0 0 0
1202 1234 1084 1240 910 1112 1301 1585 1276 1112 1018 744 532 311 258 216 233 240 272 286 310 218 0 0 0 0 0 0 0 0 0 0 0 0 0 0 0 0 0 0 0 0 0 0 0 0 0 0 0 0 0 0 0 0 0 0 0 2 0 0 0 3 18 4 1 0 0 0 0 0 0 0 0 0 0 0 0 0 0 0 0 0 0 0 0
1544 1858 1626 1341 1071 1174 1572 1816 1601 1470 1312 1023 719 383 398 385 382 386 377 361 291 252 66 0 0 0 0 0 0 0 0 0 0 0 0 0 0 0 0 0 12 0 0 0 0 0 0 0 0 0 0 0 0 2 0 1 1 2 1 0 0 1 12 0 1 5 0 0 0 0 0 1 0 0 0 0 0 0 0 0 0 0 0 0 0
1553 1612 1448 1221 1066 1269 1979 2045 1785 1589 1278 986 818 526 556 521 490 518 491 419 294 206 0 0 0 0 0 0 0 0 0 0 0 0 0 0 0 0 0 1 0 0 0 0 0 0 0 0 0 1 2 5 4 1 0 0 1 1 4 0 0 6 6 0 3 2 0 0 1 6 1 1 0 0 0 0 0 3 0 0 0 0 4 6 7
1918 2171 2066 1623 1888 2072 2091 1945 2058 1810 1003 820 635 625 662 601 588 568 581 456 343 175 0 0 0 0 0 0 0 0 0 0 0 0 0 0 0 0 0 0 0 0 0 0 0 0 0 0 1 1 0 0 0 0 2 4 4 5 16 9 24 26 2 7 14 0 2 2 0 0 1 1 1 0 0 0 2 4 0 0 0 0 0 0 1
1716 2437 2382 2094 1848 1594 1244 1028 973 891 1028 1002 656 578 573 568 574 581 461 362 202 0 0 0 0 0 0 0 0 0 0 0 0 0 0 0 0 3 0 0 0 0 0 0 0 2 14 6 0 1 0 1 3 2 0 3 7 6 0 1 9 3 2 7 4 4 31 3 0 0 0 0 1 2 1 0 2 2 0 0 0 3 4 3 0
2227 2050 1776 1538 1276 1163 1009 990 1142 866 786 653 712 618 548 551 519 456 356 270 175 0 0 0 0 2 0 0 0 0 0 0 0 0 0 0 0 0 0 0 0 2 1 0 0 0 0 0 0 5 14 4 12 10 5 1 1 6 17 17 3 3 6 0 2 15 11 0 0 0 0 0 0 0 0 0 1 1 1 3 6 6 6 6 7
1773 1616 1335 1144 1064 1001 901 860 791 710 652 694 617 590 487 499 394 358 269 180 0 0 0 1 0 0 0 0 0 0 0 2 0 0 2 0 0 2 6 0 0 0 0 0 0 0 0 0 0 4 16 12 10 12 15 10 7 9 16 10 8 4 6 3 2 2 0 1 2 3 1 0 0 0 0 2 4 4 6 9 9 11 11 10 10
1533 1360 1168 1027 974 875 826 770 725 686 673 634 557 482 421 324 202 65 26 14 1 0 0 0 0 0 0 0 0 0 33 2 0 0 0 2 0 0 0 0 0 0 0 6 1 2 6 5 5 8 12 26 22 17 8 3 1 0 0 1 2 1 0 0 2 0 0 0 0 0 0 0 0 0 0 2 6 6 7 9 6 7 12 11 12
1304 1085 974 844 784 715 682 618 610 565 537 482 423 314 249 215 67 25 36 37 0 0 0 0 0 0 0 0 0 0 26 2 0 0 0 0 0 0 0 5 0 0 0 9 4 0 0 10 38 36 14 4 2 0 0 1 6 4 4 2 1 0 0 0 0 0 0 0 0 0 0 0 0 1 2 5 6 8 10 9 9 12 13 15 16
1088 931 792 657 648 598 574 560 523 500 390 274 166 229 166 106 94 53 11 0 0 0 0 0 0 0 0 0 0 0 0 12 0 0 0 0 0 11 6 0 0 0 0 2 0 0 0 4 5 0 0 0 0 0 0 1 4 0 0 0 0 0 0 0 0 0 1 0 0 0 0 1 4 4 4 6 3 7 8 6 12 0 7 3 0
883 850 814 720 637 530 490 448 365 258 184 156 175 91 72 70 31 2 0 0 0 0 0 0 0 0 0 0 0 0 0 0 0 0 0 0 0 0 0 0 0 0 0 1 0 9 4 6 0 2 6 4 8 8 0 0 0 0 0 0 0 0 0 0 0 1 0 0 0 3 6 8 10 6 6 7 0 1 9 16 8 2 3 3 13
849 866 789 657 569 522 498 406 290 166 114 96 78 52 27 0 0 0 0 0 0 0 0 0 0 0 0 0 1 0 0 0 0 0 0 0 0 0 0 0 0 0 0 5 12 7 7 4 2 4 5 0 0 1 1 2 0 1 2 1 0 0 0 1 8 10 10 14 10 2 1 1 1 2 4 4 2 3 5 4 22 27 21 29 32
776 711 632 503 409 325 306 250 210 188 104 70 58 17 0 0 0 0 0 0 0 0 0 0 0 0 0 0 0 0 0 0 0 0 0 0 0 0 0 0 0 1 2 0 0 10 2 3 3 0 0 0 0 0 10 17 18 10 16 11 5 2 0 2 18 24 18 21 24 13 2 2 3 3 4 4 3 5 4 3 3 16 29 34 35
537 496 470 384 362 244 162 47 33 14 8 4 0 0 0 0 0 0 0 0 0 0 0 0 0 0 0 0 0 0 0 0 0 0 0 0 0 0 0 0 1 0 0 0 3 0 2 0 0 0 0 5 14 23 18 16 3 0 0 0 0 0 0 0 0 0 0 0 0 1 2 1 4 4 4 2 4 7 12 5 3 26 25 32 35
454 428 328 215 88 87 69 28 15 4 4 0 0 0 0 0 0 0 0 0 0 0 0 0 0 0 0 0 0 0 0 0 0 0 0 0 0 0 6 6 0 0 0 0 0 0 0 0 0 9 11 19 21 19 3 0 0 0 0 0 0 0 0 0 0 0 0 0 0 0 2 4 3 2 2 10 6 6 3 3 3 2 18 28 32
335 207 152 136 34 20 27 8 2 0 0 0 0 0 0 0 0 0 0 0 0 0 0 0 0 0 0 0 0 0 0 0 0 0 0 6 0 0 2 0 0 0 0 0 0 1 6 10 12 15 22 24 0 0 0 0 0 0 0 0 0 0 0 0 0 0 0 0 0 1 2 4 5 5 5 5 4 10 14 20 24 28 26 29 37
62 22 20 14 22 1 0 0 0 0 0 0 0 0 0 0 0 0 0 0 0 0 0 0 0 0 0 0 0 0 0 0 0 0 0 0 0 0 0 4 19 4 0 0 1 0 8 26 46 23 0 0 0 0 0 0 0 0 0 0 0 0 0 0 0 0 0 0 0 0 0 0 1 1 2 3 1 6 14 24 28 26 25 28 33
2 2 0 2 3 0 0 1 0 0 0 0 0 0 0 0 0 0 0 0 0 0 0 0 0 0 0 0 0 0 0 0 0 0 0 0 0 0 0 0 0 0 0 2 0 0 4 0 0 0 0 0 0 0 0 0 0 0 0 0 0 0 0 0 0 0 0 0 0 0 0 0 0 5 10 11 12 14 22 28 28 32 27 23 27
Wind_Speed
37 33 29 27 27 23 23 18 12 14 13 11 11 10 7 7 6 11 10 9 10 9 8 7 7 9 11 8 7 13 13 14 14 16 17 17 17 16 15 17 18 20 19 17 15 15 18 19 20 22 23 21 23 24 24 23 25 26 28 28 28 33 35 34 29 21 22 28 31 38 37 37 33 34 32 37 37 38 37 35 34 35 35 33 36
25 19 15 17 19 16 12 7 7 7 4 10 8 8 7 9 14 18 14 11 9 8 9 7 7 6 6 13 10 12 14 16 15 17 18 18 16 16 16 17 17 18 18 18 19 19 17 18 19 20 21 19 19 20 21 23 23 25 29 31 33 38 39 35 30 28 23 28 31 34 35 36 31 33 35 35 36 37 36 34 35 36 36 36 36
19 14 15 18 21 15 10 10 16 12 12 19 24 17 12 14 15 10 9 8 10 9 8 7 7 8 8 11 15 15 17 17 16 17 17 17 16 16 15 15 16 16 17 19 19 20 18 19 21 22 23 19 17 20 22 22 24 24 27 31 34 34 36 33 30 25 23 23 26 26 30 31 29 30 32 32 33 33 32 33 35 37 38 37 35
23 20 20 18 15 13 12 15 17 16 14 23 17 11 15 16 16 18 18 15 11 14 11 10 20 17 16 16 18 19 19 18 17 15 15 15 15 16 17 19 19 15 15 18 19 19 19 19 19 20 20 19 18 18 19 20 20 21 22 24 27 28 28 26 26 23 20 19 23 23 25 24 24 25 26 26 26 26 27 28 31 33 34 34 33
21 20 17 16 15 14 14 16 17 16 16 18 11 11 14 19 19 18 18 18 18 21 18 17 18 16 16 17 17 17 18 17 15 14 14 15 17 19 23 22 19 15 14 17 18 17 14 18 15 14 15 14 14 13 14 13 14 17 20 20 20 23 24 19 17 20 18 17 18 21 21 20 22 22 22 22 22 22 23 22 24 27 27 26 27
20 18 16 16 16 16 16 16 17 18 20 21 17 15 17 23 21 19 20 18 19 19 21 18 17 17 16 16 17 17 19 16 15 16 18 19 20 22 22 20 16 14 14 15 14 14 13 17 14 10 10 11 11 13 13 9 11 13 15 16 19 20 20 18 19 19 17 17 17 17 21 20 20 20 18 18 18 17 19 21 21 22 22 20 20
19 17 15 15 17 16 15 14 13 13 17 20 18 15 16 20 19 17 17 18 20 20 19 18 18 17 18 19 23 24 20 17 14 13 14 18 21 22 21 19 15 14 15 16 13 13 14 15 19 14 10 12 11 10 11 11 10 8 10 13 14 15 16 19 19 18 17 16 17 18 18 20 21 19 19 20 19 19 18 19 19 21 20 18 16
15 15 15 15 16 16 15 14 13 13 17 18 17 15 14 15 15 16 19 22 26 24 20 19 19 22 25 26 25 20 14 12 13 12 14 17 20 20 20 16 14 14 14 15 13 12 13 13 14 14 12 11 8 9 8 12 14 12 12 12 13 13 14 14 17 19 17 16 17 17 19 18 19 20 21 21 20 21 22 20 18 17 18 18 17
12 13 15 15 16 17 18 17 17 18 18 17 15 14 12 14 16 20 22 23 25 23 21 20 23 25 23 23 23 19 15 13 10 14 17 17 20 18 17 16 15 14 13 13 13 12 11 10 11 12 12 9 7 4 4 5 8 9 10 13 14 14 14 15 17 18 18 17 16 17 16 17 18 17 19 20 20 19 20 21 19 20 21 20 19
11 12 14 15 16 18 19 20 20 21 19 17 15 14 15 17 22 24 25 24 22 20 19 23 24 23 20 19 19 20 18 17 16 6 9 16 17 16 15 15 16 15 14 12 11 10 9 9 8 5 11 12 8 6 6 6 6 9 11 11 12 14 14 13 15 17 16 16 17 17 16 17 18 19 18 19 19 21 20 21 20 20 22 23 23
10 12 13 15 17 20 21 21 22 22 20 19 17 15 17 22 28 29 27 22 17 20 24 24 17 15 17 18 20 19 17 19 25 19 17 16 17 17 16 16 14 12 9 8 9 6 8 8 11 7 10 10 10 11 8 7 7 9 10 11 12 13 14 14 15 17 19 19 20 20 20 19 19 21 21 20 21 23 22 22 22 22 22 22 22
8 11 14 17 18 19 21 21 21 21 21 20 18 17 19 23 29 27 20 17 23 25 23 16 14 17 17 18 18 17 18 21 20 22 21 19 15 15 15 13 12 9 9 11 10 8 7 8 7 10 11 11 11 9 8 7 8 9 11 12 13 13 15 18 18 18 20 21 21 22 23 23 22 23 23 24 24 24 24 24 25 24 24 25 25
10 12 14 15 16 17 19 19 18 19 19 20 19 21 24 28 28 20 18 22 24 20 12 11 13 16 16 17 17 15 19 21 21 22 21 19 15 10 12 12 9 9 10 9 8 8 8 8 9 13 15 17 13 12 11 11 9 7 9 15 16 16 20 22 23 22 23 22 21 22 23 24 24 24 25 25 27 25 25 25 25 25 25 25 26
12 11 10 10 11 13 15 16 16 16 18 20 22 26 30 31 27 24 22 16 15 15 14 13 13 15 14 15 18 19 20 20 22 22 19 17 14 9 9 10 10 8 9 9 8 10 11 10 10 13 18 16 nan nan nan nan 12 13 14 17 21 20 22 24 25 27 26 25 24 23 24 26 26 27 27 26 25 27 28 26 27 27 27 27 27
12 9 7 8 8 10 12 14 16 17 19 22 25 32 31 29 27 18 10 11 15 14 14 18 16 16 19 17 18 19 19 23 21 19 17 14 10 6 9 10 10 9 10 11 11 14 13 12 13 14 18 nan nan nan nan nan nan 15 16 18 21 25 26 29 29 28 28 26 nan nan nan 26 27 28 28 29 29 29 30 29 28 29 29 29 29
3 5 4 5 6 8 10 13 17 20 22 27 31 31 27 22 21 13 11 13 13 13 15 19 18 18 18 18 20 21 20 19 18 16 15 12 7 6 7 8 10 11 12 11 12 13 14 13 14 15 16 18 nan nan nan nan nan 17 18 18 20 22 27 30 32 33 31 nan 29 nan nan nan nan nan nan nan 30 31 31 30 30 31 32 32 32
7 7 8 9 8 10 12 15 21 29 33 30 25 21 18 19 22 19 16 14 16 17 17 18 20 20 19 18 19 19 19 18 17 15 13 12 8 6 6 11 15 14 10 13 12 15 17 16 16 16 17 nan nan nan nan nan nan 19 19 19 21 21 29 28 30 nan nan nan nan nan nan nan nan nan nan nan nan nan nan 33 33 34 34 33 34
10 10 12 15 18 20 22 27 32 26 22 20 16 15 18 21 21 19 19 18 18 21 17 19 19 19 18 15 16 17 16 16 nan nan nan 11 6 8 11 15 13 13 14 15 18 21 22 27 nan nan nan nan nan nan nan nan nan 21 21 21 21 25 29 nan nan nan nan nan nan nan nan nan nan nan nan nan nan nan 35 34 35 35 35 36 36
13 17 20 24 28 30 32 28 21 20 21 17 15 18 20 20 20 20 20 21 22 21 19 20 18 17 14 15 19 17 16 nan nan nan nan nan 12 11 11 15 15 14 16 16 22 23 25 nan nan nan nan nan nan nan nan nan nan nan nan nan 24 26 nan nan nan nan nan nan nan 34 33 nan nan 35 35 35 32 32 36 35 36 37 36 37 37
16 20 23 25 27 32 30 23 18 14 17 17 16 17 18 18 20 21 22 23 23 21 22 20 18 14 13 16 16 16 17 nan nan nan nan 20 17 14 17 16 16 16 19 15 22 25 27 nan nan nan nan nan nan nan nan nan nan nan nan nan nan nan nan nan nan 25 nan nan 30 30 30 34 37 37 38 37 37 36 36 37 39 38 36 37 38
16 18 18 20 22 24 22 22 21 18 18 19 18 19 18 19 21 22 24 23 21 19 19 18 17 15 15 16 17 17 16 nan nan nan nan nan nan 20 19 19 17 16 16 16 22 25 27 nan nan nan nan nan nan nan nan nan nan nan nan nan nan nan nan nan nan 21 25 28 31 33 33 36 nan 36 37 39 39 38 38 38 38 38 37 37 37
15 15 14 18 23 24 20 20 18 21 20 21 22 21 20 21 21 22 21 20 21 19 17 16 16 17 16 17 17 18 18 20 nan nan nan nan nan nan 21 nan nan 16 18 19 24 27 28 nan nan nan nan nan nan nan nan nan nan nan nan nan nan nan nan nan nan 28 31 32 34 37 35 38 nan nan nan nan nan nan 38 37 36 36 37 36 36
12 12 16 20 22 21 19 19 16 21 23 23 23 23 22 21 21 20 20 21 20 20 18 16 17 15 10 14 15 17 18 19 nan nan nan nan nan nan nan nan nan 20 20 23 24 26 29 32 nan nan nan nan nan nan nan nan nan nan nan nan nan nan nan nan nan nan nan 34 36 38 39 nan 38 39 39 39 38 39 39 39 39 38 37 37 35
7 10 14 18 20 19 19 17 16 20 22 23 24 24 23 22 21 20 19 17 17 17 15 14 13 10 12 15 16 18 20 nan nan nan 21 nan nan nan nan nan nan nan 20 24 26 28 30 nan nan nan nan nan nan nan nan nan nan nan nan nan nan nan nan nan nan nan nan nan nan nan nan nan nan nan nan 38 39 39 39 40 40 40 41 nan 38
4 8 12 15 17 17 18 17 16 17 18 21 22 23 23 23 22 20 18 17 16 15 12 11 12 14 16 17 18 19 20 20 20 20 21 nan nan nan nan nan nan nan 23 26 27 nan nan nan nan nan nan nan nan nan nan nan nan nan nan nan nan nan nan nan nan nan nan nan nan nan nan nan nan nan nan 36 39 41 40 41 41 42 43 41 40
4 4 11 14 16 17 18 16 15 15 18 19 19 19 20 20 21 19 19 19 18 16 14 15 15 17 18 18 19 20 20 20 20 20 20 nan nan nan nan nan 21 23 26 nan nan nan nan nan nan nan nan nan 29 31 nan nan nan nan nan nan nan nan nan nan nan nan nan nan nan nan nan nan nan nan nan nan nan 39 39 nan nan nan 41 40 nan
5 6 11 14 16 17 17 15 15 16 15 16 13 17 18 20 23 22 22 19 18 19 19 17 18 18 20 20 21 20 20 20 21 21 19 18 19 21 20 20 21 23 nan nan 24 26 29 31 32 nan nan nan nan nan nan nan nan nan nan nan nan nan nan nan nan nan nan nan nan nan nan nan nan nan nan nan nan nan nan nan nan nan nan nan nan
8 10 11 10 17 18 18 22 21 19 19 19 19 20 24 24 25 25 24 23 21 19 19 18 19 20 21 21 21 22 22 22 nan nan nan nan nan nan nan nan nan nan nan nan nan nan 29 34 32 33 34 35 33 33 nan nan nan nan nan nan nan nan nan nan nan nan nan nan nan nan nan nan nan nan nan nan nan nan nan nan nan nan nan nan nan
19 14 17 20 21 22 21 21 21 22 23 26 27 25 22 24 29 31 29 24 22 20 22 23 21 21 22 21 22 23 nan nan nan nan nan nan nan nan nan nan nan nan nan nan nan 26 31 33 34 35 nan nan nan nan nan nan nan nan nan nan nan nan nan nan nan nan nan nan nan nan nan nan nan nan nan nan nan nan nan nan nan nan nan nan nan
24 20 22 24 23 19 20 21 22 23 26 26 28 31 38 39 34 31 29 31 36 39 35 28 28 27 27 23 19 24 nan nan nan nan nan nan nan nan nan nan nan nan nan nan nan 30 nan nan nan nan nan nan nan nan nan nan nan nan nan nan nan nan nan nan nan nan nan nan nan nan nan nan nan nan nan nan nan nan nan nan nan nan nan nan nan
25 25 26 23 16 13 20 21 23 24 25 27 28 32 32 35 41 40 40 38 43 46 45 44 41 35 32 29 29 35 nan nan nan nan nan nan nan nan nan nan nan nan nan nan nan nan nan nan nan nan nan nan nan nan nan nan nan nan nan nan nan nan nan nan nan nan nan nan nan nan nan nan nan nan nan nan nan nan nan nan nan nan nan nan nan
29 26 25 19 13 11 19 21 24 25 25 26 29 31 33 36 38 41 44 47 48 47 45 44 nan nan nan nan nan nan nan nan nan nan nan nan nan nan nan nan nan nan nan nan nan nan nan nan nan nan nan nan nan nan nan nan nan nan nan nan nan nan nan nan nan nan nan nan nan nan nan nan nan nan nan nan nan nan nan nan nan nan nan nan nan
27 27 23 19 14 9 19 22 22 25 26 27 27 28 31 34 38 39 41 47 49 47 nan nan nan nan nan nan nan nan nan nan nan nan nan nan nan nan nan nan nan nan nan 35 nan nan nan nan nan nan nan nan nan nan nan nan nan nan nan nan nan nan nan nan nan nan nan nan nan nan nan nan nan nan nan nan nan nan nan nan nan nan nan nan nan
25 26 25 23 19 15 18 20 21 23 24 25 26 29 32 35 37 38 40 40 42 44 nan nan nan nan nan nan nan nan nan nan nan nan nan nan nan nan nan nan nan nan nan nan nan nan nan nan nan nan nan nan nan nan nan nan nan nan nan nan nan nan nan nan nan nan nan nan nan nan nan nan nan nan nan nan nan nan nan nan nan nan nan nan nan
25 29 31 26 21 15 15 19 20 22 24 26 29 31 33 34 36 37 38 39 39 39 nan nan nan nan nan nan nan nan nan nan nan nan nan nan nan nan nan nan nan nan nan nan nan nan nan nan nan nan nan nan nan nan nan nan nan nan nan nan nan nan nan nan nan nan nan nan nan nan nan nan nan nan nan nan nan nan nan nan nan nan nan nan nan
27 28 29 27 24 16 18 22 23 25 26 27 29 30 32 35 37 39 39 39 38 37 nan nan nan nan nan nan nan nan nan nan nan nan nan nan nan nan nan nan nan nan nan nan nan nan nan nan nan nan nan nan nan nan nan nan nan nan nan nan nan nan nan nan nan nan nan nan nan nan nan nan nan nan nan nan nan nan nan nan nan nan nan nan nan
27 28 29 28 26 26 27 27 27 29 29 29 30 31 33 35 36 37 37 37 37 36 nan nan nan nan nan nan nan nan nan nan nan nan nan nan nan nan nan nan nan nan nan nan nan nan nan nan nan nan nan nan nan nan nan nan nan nan nan nan nan nan nan nan nan nan nan nan nan nan nan nan nan nan nan nan nan nan nan nan nan nan nan nan nan
24 27 30 31 29 31 33 34 33 35 32 31 31 32 33 32 33 34 35 35 34 nan nan nan nan nan nan nan nan nan nan nan nan nan nan nan nan nan nan nan nan nan nan nan nan nan nan nan nan nan nan nan nan nan nan nan nan nan nan nan nan nan nan nan nan nan nan nan nan nan nan nan nan nan nan nan nan nan nan nan nan nan nan nan nan
25 30 36 37 34 33 33 34 34 33 31 31 30 32 31 30 30 30 31 30 31 nan nan nan nan nan nan nan nan nan nan nan nan nan nan nan nan nan nan nan nan nan nan nan nan nan nan nan nan nan nan nan nan nan nan nan nan nan nan nan nan nan nan nan nan nan nan nan nan nan nan nan nan nan nan nan nan nan nan nan nan nan nan nan nan
30 29 32 37 33 33 33 34 34 32 31 31 30 29 28 27 27 28 28 29 nan nan nan nan nan nan nan nan nan nan nan nan nan nan nan nan nan nan nan nan nan nan nan nan nan nan nan nan nan nan nan nan nan nan nan nan nan nan nan nan nan nan nan nan nan nan nan nan nan nan nan nan nan nan nan nan nan nan nan nan nan nan nan nan nan
34 33 32 32 33 33 33 32 32 31 30 30 29 28 27 26 26 nan nan nan nan nan nan nan nan nan nan nan nan nan nan nan nan nan nan nan nan nan nan nan nan nan nan nan nan nan nan nan nan nan nan nan nan nan nan nan nan nan nan nan nan nan nan nan nan nan nan nan nan nan nan nan nan nan nan nan nan nan nan nan nan nan nan nan nan
35 35 34 33 33 33 31 29 29 31 30 29 26 25 27 27 nan nan nan nan nan nan nan nan nan nan nan nan nan nan nan nan nan nan nan nan nan nan nan nan nan nan nan nan nan nan nan nan nan nan nan nan nan nan nan nan nan nan nan nan nan nan nan nan nan nan nan nan nan nan nan nan nan nan nan nan nan nan nan nan nan nan nan nan nan
36 35 34 32 32 32 32 30 31 30 28 26 24 23 25 26 nan nan nan nan nan nan nan nan nan nan nan nan nan nan nan nan nan nan nan nan nan nan nan nan nan nan nan nan nan nan nan nan nan nan nan nan nan nan nan nan nan nan nan nan nan nan nan nan nan nan nan nan nan nan nan nan nan nan nan nan nan nan nan nan nan nan nan nan nan
35 35 34 33 33 32 32 33 32 30 27 25 24 nan nan nan nan nan nan nan nan nan nan nan nan nan nan nan nan nan nan nan nan nan nan nan nan nan nan nan nan nan nan nan nan nan nan nan nan nan nan nan nan nan nan nan nan nan nan nan nan nan nan nan nan nan nan nan nan nan nan nan nan nan nan nan nan nan nan nan nan nan nan nan nan
36 36 35 34 34 35 35 33 33 32 30 nan nan nan nan nan nan nan nan nan nan nan nan nan nan nan nan nan nan nan nan nan nan nan nan nan nan nan nan nan nan nan nan nan nan nan nan nan nan nan nan nan nan nan nan nan nan nan nan nan nan nan nan nan nan nan nan nan nan nan nan nan nan nan nan nan nan nan nan nan nan nan nan nan nan
36 35 34 33 33 32 31 30 31 31 28 nan nan nan nan nan nan nan nan nan nan nan nan nan nan nan nan nan nan nan nan nan nan nan nan nan nan nan nan nan nan nan nan nan nan nan nan nan nan nan nan nan nan nan nan nan nan nan nan nan nan nan nan nan nan nan nan nan nan nan nan nan nan nan nan nan nan nan nan nan nan nan nan nan nan
34 34 34 34 32 28 26 nan nan nan nan nan nan nan nan nan nan nan nan nan nan nan nan nan nan nan nan nan nan nan nan nan nan nan nan nan nan nan nan nan nan nan nan nan nan nan nan nan nan nan nan nan nan nan nan nan nan nan nan nan nan nan nan nan nan nan nan nan nan nan nan nan nan nan nan nan nan nan nan nan nan nan nan nan nan
32 31 30 28 nan nan nan nan nan nan nan nan nan nan nan nan nan nan nan nan nan nan nan nan nan nan nan nan nan nan nan nan nan nan nan nan nan nan nan nan nan nan nan nan nan nan nan nan nan nan nan nan nan nan nan nan nan nan nan nan nan nan nan nan nan nan nan nan nan nan nan nan nan nan nan nan nan nan nan nan nan nan nan nan nan
35 34 32 27 nan nan nan nan nan nan nan nan nan nan nan nan nan nan nan nan nan nan nan nan nan nan nan nan nan nan nan nan nan nan nan nan nan nan nan nan nan nan nan nan nan nan nan nan nan nan nan nan nan nan nan nan nan nan nan nan nan nan nan nan nan nan nan nan nan nan nan nan nan nan nan nan nan nan nan nan nan nan nan nan nan
nan nan nan nan nan nan nan nan nan nan nan nan nan nan nan nan nan nan nan nan nan nan nan nan nan nan nan nan nan nan nan nan nan nan nan nan nan nan nan nan nan nan nan nan nan nan nan nan nan nan nan nan nan nan nan nan nan nan nan nan nan nan nan nan nan nan nan nan nan nan nan nan nan nan nan nan nan nan nan nan nan nan nan nan nan
nan nan nan nan nan nan nan nan nan nan nan nan nan nan nan nan nan nan nan nan nan nan nan nan nan nan nan nan nan nan nan nan nan nan nan nan nan nan nan nan nan nan nan nan nan nan nan nan nan nan nan nan nan nan nan nan nan nan nan nan nan nan nan nan nan nan nan nan nan nan nan nan nan nan nan nan nan nan nan nan nan nan nan nan nan
Wind_Direction
225 224 221 227 224 217 219 227 204 191 210 206 242 241 229 220 224 235 228 238 244 261 266 261 253 274 291 291 301 268 269 284 296 290 293 299 302 298 294 289 294 298 299 301 294 290 288 289 290 288 286 287 289 291 290 286 285 288 289 290 289 285 279 279 279 281 277 272 270 273 275 280 285 291 290 290 291 291 292 291 291 291 291 290 289
251 259 272 281 283 274 276 286 306 264 249 272 243 238 238 231 230 231 221 231 236 248 268 284 283 272 293 293 298 292 289 286 289 291 295 297 304 306 302 300 299 297 295 294 293 295 291 287 284 282 285 289 292 294 292 289 288 286 285 281 277 276 277 281 289 289 281 277 275 272 274 284 291 295 292 288 290 292 293 289 287 290 293 294 293
255 265 272 254 246 247 237 221 217 219 215 231 226 201 202 249 244 248 272 278 268 256 263 284 277 289 294 286 298 293 286 286 283 286 290 297 303 305 298 290 291 296 299 297 297 289 286 286 285 286 287 285 283 283 282 285 283 280 279 280 281 283 289 291 288 289 290 288 285 283 286 289 293 291 296 298 299 298 294 292 291 291 292 293 292
235 233 240 250 252 248 235 235 230 218 225 239 239 255 257 250 247 246 234 236 260 268 264 267 255 253 259 264 264 274 278 274 275 281 286 290 293 294 291 283 273 272 287 290 281 285 286 281 279 278 287 291 287 283 285 285 289 291 290 289 290 293 299 302 310 315 313 309 302 299 296 294 295 299 303 314 311 302 297 294 296 297 295 298 299
248 243 244 251 248 249 250 248 248 239 241 253 252 242 254 257 256 254 255 250 255 263 266 260 264 263 265 269 275 274 276 278 281 289 291 290 286 281 280 282 282 285 286 281 284 284 287 288 289 295 288 289 295 304 304 302 305 309 312 313 310 307 307 306 316 321 319 318 311 311 307 308 310 311 310 308 308 308 307 306 302 303 305 306 304
255 254 245 248 252 255 256 258 257 247 245 253 255 241 242 248 249 251 259 256 254 259 266 268 267 270 265 265 270 269 262 260 267 268 269 271 276 280 280 282 292 297 299 296 288 296 306 304 299 293 307 312 308 297 294 300 303 311 318 316 314 311 313 320 322 322 325 326 323 315 314 317 315 317 320 316 315 315 314 312 308 307 307 306 308
257 256 250 254 258 261 264 266 264 253 244 254 257 252 250 258 259 269 273 268 262 256 260 267 267 268 266 263 254 252 262 264 265 271 279 279 277 281 286 290 298 308 300 291 299 314 318 320 317 324 335 321 317 318 310 311 310 312 313 311 311 310 320 320 316 317 322 323 320 322 320 320 324 325 326 326 328 329 325 316 313 308 305 308 311
258 259 260 260 264 268 271 278 280 272 258 258 262 266 265 263 269 265 261 258 257 252 251 257 261 260 258 263 270 272 273 289 303 301 294 290 290 288 293 303 308 307 311 313 321 323 324 326 319 318 319 298 289 294 324 327 328 333 328 316 320 327 321 318 319 318 322 325 323 323 323 323 325 327 328 329 328 326 320 315 318 318 316 317 321
256 254 254 257 263 266 269 276 275 273 271 270 269 271 269 258 250 240 241 247 251 248 246 249 252 255 258 268 277 285 273 266 279 291 292 293 292 292 296 298 304 314 317 324 324 324 327 323 316 319 317 311 310 285 295 314 319 323 328 325 327 326 324 328 326 324 327 331 325 320 324 326 328 327 325 324 324 323 318 318 324 326 324 321 323
255 250 251 256 261 262 265 265 269 270 275 278 278 276 267 260 251 247 246 245 246 250 252 250 246 255 261 272 277 274 275 282 287 289 301 287 291 293 298 309 314 319 320 320 326 324 325 310 306 297 271 282 304 327 322 331 332 337 334 326 328 327 324 323 324 325 324 323 327 328 328 331 332 328 326 325 325 321 321 324 326 323 321 323 325
248 263 260 253 250 249 256 263 267 271 274 277 282 279 272 264 257 255 254 252 254 249 242 244 244 256 265 264 267 271 283 285 304 315 304 301 303 305 311 312 314 312 312 309 300 319 296 289 300 307 300 312 320 324 342 340 351 354 356 349 338 327 323 323 322 319 320 323 327 328 327 328 328 324 326 327 323 321 323 324 325 324 321 316 314
267 262 258 256 252 251 253 258 265 269 272 275 279 279 271 268 262 259 260 260 251 241 239 248 259 263 266 267 266 272 277 277 285 283 275 267 270 293 308 306 305 311 319 314 319 308 304 305 319 318 305 304 304 304 300 294 304 328 339 343 335 332 325 326 321 316 317 318 321 322 322 321 320 322 325 323 320 321 323 325 325 322 317 314 311
254 256 257 258 255 254 254 257 260 263 266 265 265 265 266 259 255 255 253 245 251 251 248 246 254 263 268 270 274 279 280 276 275 272 273 274 271 280 295 288 309 315 308 313 316 317 322 336 333 314 304 280 293 304 307 308 298 290 297 315 321 321 324 325 327 321 316 318 317 315 317 316 317 318 317 315 317 319 314 313 311 310 311 312 311
240 243 250 254 255 252 254 255 253 253 254 253 255 261 260 257 254 244 240 240 256 263 265 268 257 260 263 270 273 273 270 264 259 260 262 264 265 276 293 302 316 315 309 314 313 304 294 292 298 302 305 303 nan nan nan nan 317 319 318 317 317 320 325 325 326 330 328 326 323 318 316 318 324 320 315 311 313 312 311 315 311 308 307 307 304
226 228 222 226 236 241 244 245 246 246 247 250 251 249 249 255 254 258 260 260 260 261 265 268 267 259 252 252 266 261 258 249 254 254 254 254 255 289 314 315 311 319 320 299 297 293 303 309 309 304 307 nan nan nan nan nan nan 326 327 324 325 328 325 323 324 325 325 318 nan nan nan 316 312 313 316 317 318 317 316 314 314 314 312 310 311
289 297 281 256 235 231 231 237 241 242 244 243 244 248 253 266 279 289 279 264 266 264 267 270 268 269 272 264 261 261 257 250 254 252 250 250 245 301 309 325 312 300 288 287 290 307 310 309 308 301 305 308 nan nan nan nan nan 323 320 319 319 322 320 318 317 311 309 nan 318 nan nan nan nan nan nan nan 317 315 313 312 313 315 314 308 305
336 327 312 292 266 246 239 238 240 237 233 238 250 262 273 277 275 279 276 264 261 264 266 265 260 260 260 257 259 263 261 249 251 253 253 242 253 285 301 289 281 285 288 299 309 292 288 289 292 300 301 nan nan nan nan nan nan 311 311 310 308 309 303 306 309 nan nan nan nan nan nan nan nan nan nan nan nan nan nan 312 312 306 302 304 305
298 303 293 277 258 236 228 232 239 248 260 263 274 282 271 262 267 272 273 274 265 255 247 253 251 253 259 266 265 264 261 250 nan nan nan 238 260 281 280 281 287 299 309 307 299 292 281 274 nan nan nan nan nan nan nan nan nan 307 304 304 306 306 296 nan nan nan nan nan nan nan nan nan nan nan nan nan nan nan 309 308 305 303 303 303 303
269 274 267 259 249 237 235 238 245 251 253 257 254 249 253 260 266 269 270 271 271 272 268 263 254 248 257 264 272 271 268 nan nan nan nan nan 253 269 281 288 290 286 285 290 298 301 296 nan nan nan nan nan nan nan nan nan nan nan nan nan 300 297 nan nan nan nan nan nan nan 313 316 nan nan 314 314 319 317 313 310 309 302 299 300 300 300
257 262 262 256 248 250 256 262 258 257 269 261 257 261 263 265 269 268 264 259 255 256 262 259 260 257 265 262 264 269 268 nan nan nan nan 245 246 268 269 268 274 282 290 300 302 305 302 nan nan nan nan nan nan nan nan nan nan nan nan nan nan nan nan nan nan 308 nan nan 309 307 305 307 311 311 311 311 309 308 306 303 299 297 299 302 301
255 265 275 283 279 275 285 298 300 291 282 275 269 269 267 265 262 260 262 261 259 254 256 260 264 264 258 258 261 263 268 nan nan nan nan nan nan 257 273 270 272 278 285 286 288 291 293 nan nan nan nan nan nan nan nan nan nan nan nan nan nan nan nan nan nan 297 304 303 301 297 297 294 nan 298 301 302 301 302 302 299 297 300 301 299 299
265 277 298 296 287 278 281 277 280 282 276 270 274 272 265 261 258 255 253 261 263 260 258 253 246 240 249 255 260 262 266 268 nan nan nan nan nan nan 270 nan nan 286 286 290 290 290 292 nan nan nan nan nan nan nan nan nan nan nan nan nan nan nan nan nan nan 304 299 297 297 297 298 298 nan nan nan nan nan nan 300 298 299 299 299 300 301
277 284 280 282 288 289 288 291 288 280 276 274 271 266 263 262 260 258 258 262 261 258 249 244 249 241 257 268 267 267 266 263 nan nan nan nan nan nan nan nan nan 280 283 285 287 292 295 298 nan nan nan nan nan nan nan nan nan nan nan nan nan nan nan nan nan nan nan 295 295 294 296 nan 296 297 299 300 302 301 301 303 304 303 299 296 296
291 279 280 289 294 294 296 300 290 280 278 273 270 268 268 269 265 261 262 263 266 258 244 242 263 295 289 276 274 270 267 nan nan nan 273 nan nan nan nan nan nan nan 292 290 293 294 296 nan nan nan nan nan nan nan nan nan nan nan nan nan nan nan nan nan nan nan nan nan nan nan nan nan nan nan nan 301 303 302 301 301 300 299 299 nan 303
291 293 295 296 293 293 292 294 293 287 281 276 271 272 273 274 267 267 266 264 269 269 265 278 288 285 281 279 275 272 272 273 277 280 284 nan nan nan nan nan nan nan 288 292 295 nan nan nan nan nan nan nan nan nan nan nan nan nan nan nan nan nan nan nan nan nan nan nan nan nan nan nan nan nan nan 300 302 303 302 301 300 302 304 303 303
290 319 301 297 297 293 290 292 294 289 289 281 277 276 278 277 275 275 265 257 260 270 273 275 277 273 270 273 273 275 277 279 281 285 287 nan nan nan nan nan 293 294 293 nan nan nan nan nan nan nan nan nan 303 300 nan nan nan nan nan nan nan nan nan nan nan nan nan nan nan nan nan nan nan nan nan nan nan 298 296 nan nan nan 294 295 nan
264 298 293 296 292 289 287 279 272 269 270 272 275 276 270 270 274 278 274 270 270 271 269 275 274 272 273 271 272 273 276 273 271 270 273 287 295 301 302 296 300 302 nan nan 299 305 306 304 302 nan nan nan nan nan nan nan nan nan nan nan nan nan nan nan nan nan nan nan nan nan nan nan nan nan nan nan nan nan nan nan nan nan nan nan nan
255 267 254 268 278 272 267 268 260 251 247 247 248 256 260 257 255 251 254 259 269 269 273 270 267 273 275 276 276 277 272 269 nan nan nan nan nan nan nan nan nan nan nan nan nan nan 299 300 299 303 303 303 304 303 nan nan nan nan nan nan nan nan nan nan nan nan nan nan nan nan nan nan nan nan nan nan nan nan nan nan nan nan nan nan nan
200 207 239 229 234 247 251 252 257 261 257 252 247 242 238 245 252 251 244 239 237 254 267 264 267 263 264 267 279 276 nan nan nan nan nan nan nan nan nan nan nan nan nan nan nan 302 302 299 301 298 nan nan nan nan nan nan nan nan nan nan nan nan nan nan nan nan nan nan nan nan nan nan nan nan nan nan nan nan nan nan nan nan nan nan nan
212 202 231 230 231 240 254 259 262 264 263 264 261 252 244 241 239 249 247 236 241 242 247 254 255 259 258 250 255 275 nan nan nan nan nan nan nan nan nan nan nan nan nan nan nan 308 nan nan nan nan nan nan nan nan nan nan nan nan nan nan nan nan nan nan nan nan nan nan nan nan nan nan nan nan nan nan nan nan nan nan nan nan nan nan nan
240 225 241 243 224 241 266 265 268 268 270 271 268 267 261 250 246 245 247 243 242 242 245 248 249 255 266 267 258 262 nan nan nan nan nan nan nan nan nan nan nan nan nan nan nan nan nan nan nan nan nan nan nan nan nan nan nan nan nan nan nan nan nan nan nan nan nan nan nan nan nan nan nan nan nan nan nan nan nan nan nan nan nan nan nan
256 256 245 243 228 207 261 268 272 273 273 272 271 272 269 267 256 245 247 248 246 246 249 250 nan nan nan nan nan nan nan nan nan nan nan nan nan nan nan nan nan nan nan nan nan nan nan nan nan nan nan nan nan nan nan nan nan nan nan nan nan nan nan nan nan nan nan nan nan nan nan nan nan nan nan nan nan nan nan nan nan nan nan nan nan
275 276 275 263 244 248 275 280 280 278 277 276 274 271 270 268 265 262 253 252 253 253 nan nan nan nan nan nan nan nan nan nan nan nan nan nan nan nan nan nan nan nan nan 300 nan nan nan nan nan nan nan nan nan nan nan nan nan nan nan nan nan nan nan nan nan nan nan nan nan nan nan nan nan nan nan nan nan nan nan nan nan nan nan nan nan
283 284 284 278 270 258 278 289 284 279 278 278 273 270 267 265 266 265 263 260 255 251 nan nan nan nan nan nan nan nan nan nan nan nan nan nan nan nan nan nan nan nan nan nan nan nan nan nan nan nan nan nan nan nan nan nan nan nan nan nan nan nan nan nan nan nan nan nan nan nan nan nan nan nan nan nan nan nan nan nan nan nan nan nan nan
281 284 282 274 264 266 291 291 287 281 278 275 273 273 269 265 264 262 260 260 259 259 nan nan nan nan nan nan nan nan nan nan nan nan nan nan nan nan nan nan nan nan nan nan nan nan nan nan nan nan nan nan nan nan nan nan nan nan nan nan nan nan nan nan nan nan nan nan nan nan nan nan nan nan nan nan nan nan nan nan nan nan nan nan nan
287 285 286 282 272 266 283 292 288 283 282 279 278 276 270 264 261 260 259 260 261 263 nan nan nan nan nan nan nan nan nan nan nan nan nan nan nan nan nan nan nan nan nan nan nan nan nan nan nan nan nan nan nan nan nan nan nan nan nan nan nan nan nan nan nan nan nan nan nan nan nan nan nan nan nan nan nan nan nan nan nan nan nan nan nan
278 282 285 284 276 272 274 278 281 282 280 279 276 273 270 269 268 266 263 263 263 265 nan nan nan nan nan nan nan nan nan nan nan nan nan nan nan nan nan nan nan nan nan nan nan nan nan nan nan nan nan nan nan nan nan nan nan nan nan nan nan nan nan nan nan nan nan nan nan nan nan nan nan nan nan nan nan nan nan nan nan nan nan nan nan
278 281 282 282 276 273 275 278 280 281 279 275 270 269 271 273 273 269 266 266 267 nan nan nan nan nan nan nan nan nan nan nan nan nan nan nan nan nan nan nan nan nan nan nan nan nan nan nan nan nan nan nan nan nan nan nan nan nan nan nan nan nan nan nan nan nan nan nan nan nan nan nan nan nan nan nan nan nan nan nan nan nan nan nan nan
284 284 286 284 281 279 281 284 282 281 278 273 267 268 270 273 272 269 269 269 270 nan nan nan nan nan nan nan nan nan nan nan nan nan nan nan nan nan nan nan nan nan nan nan nan nan nan nan nan nan nan nan nan nan nan nan nan nan nan nan nan nan nan nan nan nan nan nan nan nan nan nan nan nan nan nan nan nan nan nan nan nan nan nan nan
283 284 281 281 278 280 283 283 282 280 278 276 272 268 267 268 272 275 275 271 nan nan nan nan nan nan nan nan nan nan nan nan nan nan nan nan nan nan nan nan nan nan nan nan nan nan nan nan nan nan nan nan nan nan nan nan nan nan nan nan nan nan nan nan nan nan nan nan nan nan nan nan nan nan nan nan nan nan nan nan nan nan nan nan nan
282 282 283 282 283 283 282 281 280 277 274 273 273 270 266 266 271 nan nan nan nan nan nan nan nan nan nan nan nan nan nan nan nan nan nan nan nan nan nan nan nan nan nan nan nan nan nan nan nan nan nan nan nan nan nan nan nan nan nan nan nan nan nan nan nan nan nan nan nan nan nan nan nan nan nan nan nan nan nan nan nan nan nan nan nan
279 281 280 280 280 280 281 281 283 281 275 274 276 272 264 264 nan nan nan nan nan nan nan nan nan nan nan nan nan nan nan nan nan nan nan nan nan nan nan nan nan nan nan nan nan nan nan nan nan nan nan nan nan nan nan nan nan nan nan nan nan nan nan nan nan nan nan nan nan nan nan nan nan nan nan nan nan nan nan nan nan nan nan nan nan
279 277 276 275 275 278 277 277 280 281 278 276 275 266 263 266 nan nan nan nan nan nan nan nan nan nan nan nan nan nan nan nan nan nan nan nan nan nan nan nan nan nan nan nan nan nan nan nan nan nan nan nan nan nan nan nan nan nan nan nan nan nan nan nan nan nan nan nan nan nan nan nan nan nan nan nan nan nan nan nan nan nan nan nan nan
278 277 276 273 273 273 271 272 274 277 275 268 264 nan nan nan nan nan nan nan nan nan nan nan nan nan nan nan nan nan nan nan nan nan nan nan nan nan nan nan nan nan nan nan nan nan nan nan nan nan nan nan nan nan nan nan nan nan nan nan nan nan nan nan nan nan nan nan nan nan nan nan nan nan nan nan nan nan nan nan nan nan nan nan nan
273 275 275 272 271 272 272 268 267 265 259 nan nan nan nan nan nan nan nan nan nan nan nan nan nan nan nan nan nan nan nan nan nan nan nan nan nan nan nan nan nan nan nan nan nan nan nan nan nan nan nan nan nan nan nan nan nan nan nan nan nan nan nan nan nan nan nan nan nan nan nan nan nan nan nan nan nan nan nan nan nan nan nan nan nan
272 270 266 264 265 265 263 262 262 259 255 nan nan nan nan nan nan nan nan nan nan nan nan nan nan nan nan nan nan nan nan nan nan nan nan nan nan nan nan nan nan nan nan nan nan nan nan nan nan nan nan nan nan nan nan nan nan nan nan nan nan nan nan nan nan nan nan nan nan nan nan nan nan nan nan nan nan nan nan nan nan nan nan nan nan
267 262 258 255 257 255 249 nan nan nan nan nan nan nan nan nan nan nan nan nan nan nan nan nan nan nan nan nan nan nan nan nan nan nan nan nan nan nan nan nan nan nan nan nan nan nan nan nan nan nan nan nan nan nan nan nan nan nan nan nan nan nan nan nan nan nan nan nan nan nan nan nan nan nan nan nan nan nan nan nan nan nan nan nan nan
260 254 248 249 nan nan nan nan nan nan nan nan nan nan nan nan nan nan nan nan nan nan nan nan nan nan nan nan nan nan nan nan nan nan nan nan nan nan nan nan nan nan nan nan nan nan nan nan nan nan nan nan nan nan nan nan nan nan nan nan nan nan nan nan nan nan nan nan nan nan nan nan nan nan nan nan nan nan nan nan nan nan nan nan nan
257 256 250 243 nan nan nan nan nan nan nan nan nan nan nan nan nan nan nan nan nan nan nan nan nan nan nan nan nan nan nan nan nan nan nan nan nan nan nan nan nan nan nan nan nan nan nan nan nan nan nan nan nan nan nan nan nan nan nan nan nan nan nan nan nan nan nan nan nan nan nan nan nan nan nan nan nan nan nan nan nan nan nan nan nan
nan nan nan nan nan nan nan nan nan nan nan nan nan nan nan nan nan nan nan nan nan nan nan nan nan nan nan nan nan nan nan nan nan nan nan nan nan nan nan nan nan nan nan nan nan nan nan nan nan nan nan nan nan nan nan nan nan nan nan nan nan nan nan nan nan nan nan nan nan nan nan nan nan nan nan nan nan nan nan nan nan nan nan nan nan
nan nan nan nan nan nan nan nan nan nan nan nan nan nan nan nan nan nan nan nan nan nan nan nan nan nan nan nan nan nan nan nan nan nan nan nan nan nan nan nan nan nan nan nan nan nan nan nan nan nan nan nan nan nan nan nan nan nan nan nan nan nan nan nan nan nan nan nan nan nan nan nan nan nan nan nan nan nan nan nan nan nan nan nan nan